Location: Be?i?
(36.9044°N, 30.1006°E)
Time: 11:09:50
(UTC+00:00)

IDEFIX/ARIANE 42P - Pass Details

Date: 05 August 2024
Orbit: 782 x 799 km, 98.5° (Epoch: 08 September)

Event Time Altitude Azimuth Distance (km) Brightness Sun altitude
Rises 23:39:37 0° 13° (NNE) 3,276 6.8 -32.1°
Reaches altitude 10° 23:41:56 10° 13° (NNE) 2,345 5.8 -31.9°
Enters shadow 23:45:49 52° 16° (NNE) 968 3.2 -31.5°
